[[{"header":{"parameterUnit":"m.s-1","parameterCategory":2,"la1":30.2991,"la2":30.254,"lo1":-89.0895,"lo2":-89.0444,"dy":0.0017,"dx":0.0017,"nx":28,"ny":28,"refTime":"2025-05-31T09:00:00:Z","depth":"0","parameterNumber":2,"parameterNumberName":"U-component_of_CURRENTS"},"data":[0,0,0,0,0,0,0,0,0,0,0,0,0,0,0,0,0,0,0,0,0,0,0,0,0,0,0,0,0,0,0,0,0,0,0,0,0,0,0,0,0,0,0,0,0,0,0,0,0,0,0,0,0,0,0,0,0,0,-0.2235,-0.2237,0,-0.2397,-0.2398,-0.24,-0.2405,-0.2403,-0.2402,-0.24,-0.2425,-0.2427,-0.2429,0,0,0,0,0,0,0,0,0,0,0,0,0,-0.206,-0.2062,-0.2235,-0.2237,-0.2239,-0.2396,-0.2398,-0.2401,-0.2406,-0.2403,-0.2401,-0.2399,-0.2424,-0.2427,-0.243,0,0,0,0,0,0,0,0,0,0,0,0,0,-0.2169,-0.2063,-0.2234,-0.2261,-0.2265,-0.2396,-0.2399,-0.2401,-0.2406,-0.2403,-0.24,-0.2398,-0.2423,-0.2426,-0.243,-0.2509,0,0,-0.2441,-0.2443,0,0,0,0,0,0,0,0,-0.2162,-0.2175,-0.2255,-0.2259,-0.2264,-0.2379,-0.2346,-0.2431,-0.2407,-0.2352,-0.24,-0.2396,-0.2399,-0.2405,-0.2442,-0.2511,-0.2512,-0.2441,-0.2444,-0.2445,-0.2446,0,0,0,0,0,0,0,-0.2155,-0.2169,-0.2298,-0.2258,-0.2263,-0.2309,-0.232,-0.2363,-0.2386,-0.2356,-0.2357,-0.2378,-0.24,-0.2439,-0.2442,-0.2512,-0.2441,-0.2445,-0.2447,-0.2448,-0.2584,-0.2585,0,0,0,0,0,0,-0.2133,-0.2162,-0.2293,-0.2303,-0.2206,-0.2314,-0.2327,-0.2344,-0.2389,-0.2394,-0.238,-0.2377,-0.2434,-0.2438,-0.2443,-0.2498,-0.2445,-0.2449,-0.2451,-0.2582,-0.2584,-0.2586,0,0,0,0,0,0,-0.2129,-0.2144,-0.2286,-0.2236,-0.2258,-0.2319,-0.234,-0.2349,-0.2377,-0.2408,-0.241,-0.2397,-0.2432,-0.2438,-0.2484,-0.2499,-0.245,-0.2454,-0.2581,-0.2583,-0.2585,-0.2633,0,0,0,0,0,0,-0.2123,-0.2141,-0.2148,-0.2235,-0.226,-0.237,-0.2343,-0.2354,-0.2395,-0.2393,-0.2424,-0.2424,-0.243,-0.2479,-0.2488,-0.2504,-0.2456,-0.2579,-0.2582,-0.2584,-0.263,-0.2637,-0.2643,0,0,0,0,0,-0.2116,-0.2143,-0.2148,-0.2164,-0.2267,-0.2372,-0.239,-0.2423,-0.2398,-0.2433,-0.2445,-0.2423,-0.25,-0.2485,-0.2494,-0.2511,-0.2578,-0.2581,-0.2584,-0.2627,-0.2635,-0.2642,0,0,0,0,0,0,-0.2078,-0.2149,-0.2155,-0.2202,-0.228,-0.2373,-0.2404,-0.2428,-0.2471,-0.2453,-0.2462,-0.2466,-0.2509,-0.2511,-0.2493,-0.2556,-0.2528,-0.2534,-0.2557,-0.2566,-0.2572,-0.2551,-0.2459,0,0,0,0,0,-0.2072,-0.21,-0.2189,-0.2226,-0.2259,-0.2329,-0.2372,-0.2404,-0.2456,-0.2471,-0.2497,-0.2512,-0.2538,-0.2549,-0.2581,-0.2631,-0.261,-0.2641,-0.2647,-0.2653,-0.2642,-0.2618,-0.262,-0.2596,-0.2596,-0.2596,0,0,-0.2067,-0.2109,-0.2126,-0.2218,-0.2269,-0.2346,-0.2347,-0.242,-0.2471,-0.2468,-0.253,-0.2546,-0.2559,-0.2609,-0.2626,-0.2607,-0.2658,-0.2657,-0.2661,-0.2647,-0.2621,-0.2623,-0.2625,-0.2598,-0.2598,-0.2597,0,0,-0.2086,-0.2108,-0.2145,-0.2214,-0.2301,-0.2355,-0.2374,-0.2473,-0.2495,-0.2578,-0.2568,-0.2596,-0.2657,-0.2666,-0.2674,-0.2738,-0.2698,-0.2738,-0.2751,-0.2728,-0.2729,-0.2729,-0.2741,-0.2742,-0.2735,-0.2735,-0.2735,0,-0.2074,-0.2127,-0.2178,-0.2244,-0.2287,-0.2355,-0.2415,-0.2479,-0.258,-0.2585,-0.2595,-0.2659,-0.2683,-0.2706,-0.2732,-0.2751,-0.2733,-0.272,-0.2734,-0.2733,-0.2733,-0.2744,-0.2745,-0.2738,-0.2737,-0.2737,-0.2737,0,-0.2135,-0.2177,-0.2208,-0.2296,-0.2362,-0.2425,-0.2514,-0.2566,-0.2593,-0.2641,-0.2678,-0.2725,-0.2739,-0.2765,-0.2776,-0.2783,-0.2773,-0.2748,-0.2708,-0.2738,-0.2749,-0.2749,-0.2741,-0.274,-0.274,-0.2739,0,0,-0.2092,-0.2218,-0.2225,-0.2256,-0.2381,-0.2437,-0.2515,-0.2587,-0.2607,-0.2692,-0.2707,-0.2775,-0.2769,-0.2777,-0.2787,-0.2788,-0.2805,-0.2768,-0.2765,-0.277,-0.2768,-0.2729,-0.2724,-0.2766,-0.2765,-0.2765,-0.279,0,-0.2109,-0.2204,-0.2272,-0.2356,-0.2404,-0.2477,-0.2541,-0.2613,-0.2664,-0.271,-0.273,-0.2767,-0.278,-0.2784,-0.2786,-0.2802,-0.2799,-0.2802,-0.2746,-0.2745,-0.2697,-0.272,-0.2571,-0.2575,-0.2789,-0.2789,-0.2789,0,-0.2137,-0.2187,-0.2261,-0.2345,-0.237,-0.2432,-0.2491,-0.2566,-0.2641,-0.2673,-0.2697,-0.2729,-0.2761,-0.2761,-0.2776,-0.2769,-0.2765,-0.2778,-0.2778,-0.2714,-0.2703,-0.2574,-0.2566,-0.2538,-0.2787,-0.2787,-0.2787,0,-0.2054,-0.2171,-0.2205,-0.2246,-0.2371,-0.2384,-0.244,-0.2528,-0.2576,-0.2637,-0.2676,-0.27,-0.2729,-0.2719,-0.2768,-0.2756,-0.2783,-0.2762,-0.2724,-0.2723,-0.2571,-0.2556,-0.2512,-0.2742,-0.2742,-0.2742,-0.2742,0,-0.2034,-0.2061,-0.216,-0.2184,-0.2214,-0.2315,-0.2354,-0.2415,-0.2503,-0.256,-0.2631,-0.2679,-0.2715,-0.2752,-0.2759,-0.2752,-0.2765,-0.2726,-0.2715,-0.259,-0.2577,-0.2525,-0.2549,-0.2743,-0.2743,-0.2742,-0.2742,0,-0.1945,-0.202,-0.206,-0.2152,-0.2181,-0.2194,-0.2309,-0.2345,-0.2439,-0.2515,-0.2536,-0.2659,-0.2708,-0.2755,-0.2772,-0.2747,-0.2693,-0.273,-0.2607,-0.258,-0.2491,-0.2524,-0.2484,-0.2417,-0.2674,-0.2673,-0.2672,0,-0.191,-0.1922,-0.2008,-0.2028,-0.2063,-0.2114,-0.2161,-0.2282,-0.2341,-0.2505,-0.2535,-0.263,-0.2677,-0.2716,-0.2694,-0.2683,-0.2666,-0.2532,-0.2473,-0.2465,-0.2494,-0.252,-0.2469,-0.2313,-0.2309,-0.2306,-0.2304,0,-0.1822,-0.1847,-0.1879,-0.192,-0.196,-0.202,-0.2095,-0.2139,-0.2293,-0.237,-0.2473,-0.2522,-0.2596,-0.2537,-0.2543,-0.2505,-0.2449,-0.2468,-0.2463,-0.2211,-0.2229,-0.2165,-0.2364,-0.2277,-0.228,-0.2282,-0.2283,-0.2284,-0.1737,-0.1733,-0.1774,-0.1805,-0.1855,-0.1898,-0.1906,-0.2015,-0.209,-0.2196,-0.2328,-0.238,-0.238,-0.2367,-0.2337,-0.2212,-0.2293,-0.2114,-0.2162,-0.2197,-0.2096,-0.2264,-0.216,-0.2162,-0.2164,-0.2166,-0.2167,0,-0.1633,-0.1647,-0.1664,-0.1697,-0.1701,-0.1771,-0.1848,-0.185,-0.1894,-0.2027,-0.2097,-0.2157,-0.2081,-0.2092,-0.2011,-0.1923,-0.1863,-0.1873,-0.1847,-0.1812,-0.1936,-0.188,-0.1704,-0.1704,-0.1704,-0.1704,-0.1704,-0.1704,-0.1581,-0.1559,-0.1573,-0.1538,-0.1556,-0.1529,-0.1543,-0.1569,-0.1637,-0.1706,-0.1797,-0.1924,-0.1947,-0.2036,-0.1889,-0.1779,-0.1738,-0.1677,-0.1747,-0.1813,-0.1839,-0.1863,-0.1813,-0.1626,-0.1626,-0.1507,-0.1506,-0.1506]},{"header":{"parameterUnit":"m.s-1","parameterCategory":2,"la1":30.2991,"la2":30.254,"lo1":-89.0895,"lo2":-89.0444,"dy":0.0017,"dx":0.0017,"nx":28,"ny":28,"refTime":"2025-05-31T09:00:00:Z","depth":"0","parameterNumber":3,"parameterNumberName":"V-component_of_CURRENTS"},"data":[0,0,0,0,0,0,0,0,0,0,0,0,0,0,0,0,0,0,0,0,0,0,0,0,0,0,0,0,0,0,0,0,0,0,0,0,0,0,0,0,0,0,0,0,0,0,0,0,0,0,0,0,0,0,0,0,0,0,-0.0169,-0.0168,0,-0.0107,-0.0107,-0.0106,-0.0052,-0.0052,-0.0051,-0.0051,0.0078,0.0081,0.0084,0,0,0,0,0,0,0,0,0,0,0,0,0,-0.0222,-0.0221,-0.0169,-0.0168,-0.0167,-0.0107,-0.0106,-0.0106,-0.0053,-0.0052,-0.0051,-0.0051,0.0078,0.0081,0.0084,0,0,0,0,0,0,0,0,0,0,0,0,0,-0.0183,-0.0221,-0.0169,-0.0134,-0.013,-0.0108,-0.0106,-0.0105,-0.0053,-0.0052,-0.0051,-0.005,0.0076,0.0081,0.0085,0.0095,0,0,0.0098,0.01,0,0,0,0,0,0,0,0,-0.0185,-0.0181,-0.014,-0.0136,-0.0132,-0.0087,-0.0078,-0.0035,-0.0053,-0.0082,-0.0051,-0.005,0.0028,0.0037,0.0046,0.0101,0.0107,0.0099,0.0101,0.0103,0.0105,0,0,0,0,0,0,0,-0.0188,-0.0183,-0.0144,-0.0139,-0.0134,-0.0115,-0.0109,-0.007,-0.003,-0.0079,-0.0075,-0.0069,0.0031,0.0042,0.005,0.0109,0.0099,0.0102,0.0105,0.0107,0.0231,0.0232,0,0,0,0,0,0,-0.0198,-0.0186,-0.0146,-0.0142,-0.0158,-0.0115,-0.0108,-0.0102,-0.0032,-0.0021,-0.007,-0.0067,0.0034,0.0045,0.0055,0.0089,0.0103,0.0107,0.011,0.0231,0.0231,0.0232,0,0,0,0,0,0,-0.02,-0.0196,-0.0148,-0.0163,-0.0156,-0.0115,-0.0109,-0.0101,-0.0091,-0.0026,-0.0014,-0.0068,0.0035,0.0049,0.009,0.0094,0.0109,0.0113,0.023,0.0231,0.0232,0.0145,0,0,0,0,0,0,-0.0202,-0.0196,-0.0198,-0.0164,-0.0155,-0.015,-0.0109,-0.0101,-0.0089,-0.0085,-0.0021,-0.0008,0.0037,0.0083,0.0095,0.01,0.0117,0.0229,0.023,0.0231,0.0147,0.0143,0.014,0,0,0,0,0,-0.0204,-0.0218,-0.0198,-0.0193,-0.0158,-0.0152,-0.0146,-0.0113,-0.009,-0.0099,-0.0044,-0.001,0.01,0.0087,0.01,0.0107,0.0228,0.023,0.0231,0.0149,0.0144,0.014,0,0,0,0,0,0,-0.0245,-0.0213,-0.0191,-0.0194,-0.0178,-0.0143,-0.0146,-0.0122,-0.0087,-0.0077,-0.001,0.0006,0.0046,0.009,0.0073,0.015,0.0174,0.0178,0.0107,0.0103,0.0099,0.008,0.012,0,0,0,0,0,-0.0254,-0.0253,-0.0222,-0.0225,-0.0219,-0.0182,-0.0175,-0.0155,-0.0119,-0.0103,-0.0056,0.0006,0.0062,0.0091,0.0139,0.0173,0.0211,0.0192,0.0188,0.0184,0.0181,0.023,0.0229,0.0237,0.0237,0.0237,0,0,-0.027,-0.0253,-0.0251,-0.0233,-0.0215,-0.0221,-0.0176,-0.0175,-0.0167,-0.0094,-0.0068,-0.0012,0.0068,0.0108,0.0132,0.0145,0.0204,0.0186,0.0182,0.0181,0.0231,0.023,0.0229,0.0238,0.0238,0.0238,0,0,-0.0316,-0.0288,-0.0308,-0.03,-0.0282,-0.0257,-0.026,-0.0229,-0.0201,-0.0174,-0.0107,-0.0053,0.0018,0.0079,0.0122,0.0128,0.0178,0.015,0.0117,0.0164,0.0163,0.0163,0.0208,0.0212,0.0152,0.0151,0.0151,0,-0.0337,-0.0351,-0.0315,-0.0336,-0.033,-0.0278,-0.0299,-0.0267,-0.0224,-0.0194,-0.0177,-0.0052,0.0007,0.0081,0.0087,0.0118,0.015,0.0121,0.0156,0.0156,0.0157,0.0204,0.021,0.0147,0.0148,0.0148,0.0149,0,-0.0399,-0.0408,-0.0422,-0.042,-0.0412,-0.0424,-0.0375,-0.0356,-0.0312,-0.0268,-0.0197,-0.0114,-0.0037,-0.0004,0.0042,0.0092,0.0115,0.0137,0.0157,0.0151,0.0201,0.0209,0.0142,0.0143,0.0144,0.0145,0,0,-0.0443,-0.0462,-0.0464,-0.0478,-0.0456,-0.0457,-0.0435,-0.0395,-0.0374,-0.0311,-0.0273,-0.0167,-0.0116,-0.0063,0.001,0.0056,0.0092,0.0092,0.0096,0.0118,0.0192,0.0227,0.0239,0.0113,0.0114,0.0114,0.0222,0,-0.0499,-0.0558,-0.0541,-0.0581,-0.0603,-0.0547,-0.0532,-0.0484,-0.0424,-0.0376,-0.0263,-0.0203,-0.0136,-0.0101,-0.0043,0.0063,0.0108,0.006,0.0212,0.0216,0.0232,0.0248,0.0271,0.037,0.023,0.0231,0.0232,0,-0.056,-0.0589,-0.0645,-0.0655,-0.0657,-0.0666,-0.0621,-0.0601,-0.0507,-0.046,-0.0374,-0.0288,-0.0181,-0.0142,0.0028,-0.0008,0.008,0.0155,0.0162,0.0229,0.0266,0.0358,0.039,0.0584,0.0244,0.0243,0.0242,0,-0.0609,-0.0654,-0.0698,-0.0704,-0.071,-0.0709,-0.0695,-0.0625,-0.0605,-0.0509,-0.0489,-0.0344,-0.0278,-0.0146,0.0025,0.0023,0.0197,0.0217,0.0333,0.0337,0.0406,0.0414,0.0628,0.0316,0.0316,0.0316,0.0315,0,-0.0668,-0.0703,-0.0728,-0.0755,-0.0795,-0.0767,-0.0781,-0.074,-0.0688,-0.0678,-0.0538,-0.0496,-0.0281,-0.0147,0.0002,0.0198,0.0186,0.0332,0.0369,0.0378,0.0382,0.0593,0.0664,0.032,0.0319,0.0318,0.0317,0,-0.0715,-0.0734,-0.0791,-0.0816,-0.0825,-0.0849,-0.0858,-0.0866,-0.0804,-0.0788,-0.0764,-0.0603,-0.0422,-0.0202,0.0024,0.0166,0.0461,0.0414,0.0411,0.0445,0.0731,0.0794,0.1017,0.1114,0.0564,0.0566,0.0567,0,-0.0744,-0.0781,-0.0841,-0.0884,-0.09,-0.0933,-0.0961,-0.0926,-0.0933,-0.0858,-0.0856,-0.068,-0.0555,-0.0188,0.0107,0.0393,0.0529,0.0572,0.0577,0.076,0.0859,0.0897,0.0966,0.0639,0.0641,0.0642,0.0643,0,-0.0793,-0.0814,-0.086,-0.0958,-0.1008,-0.1064,-0.1096,-0.1122,-0.1083,-0.1061,-0.0997,-0.0891,-0.0519,-0.017,0.0222,0.0399,0.0711,0.061,0.081,0.0945,0.0992,0.1098,0.0553,0.0656,0.0655,0.0654,0.0653,0.0653,-0.0818,-0.0867,-0.094,-0.1028,-0.1099,-0.1181,-0.1228,-0.126,-0.128,-0.1242,-0.1113,-0.093,-0.0391,0.0176,0.0391,0.0877,0.0835,0.1018,0.1083,0.1108,0.12,0.0679,0.0814,0.0814,0.0813,0.0813,0.0813,0,-0.0849,-0.0915,-0.1009,-0.1118,-0.1215,-0.1233,-0.1311,-0.135,-0.1392,-0.1304,-0.1211,-0.0659,-0.0125,0.0393,0.107,0.1338,0.1398,0.1474,0.1554,0.1603,0.1164,0.1168,0.1372,0.1372,0.1372,0.1372,0.1372,0.1371,-0.0869,-0.0965,-0.1025,-0.1194,-0.1274,-0.139,-0.1437,-0.1484,-0.1438,-0.1262,-0.0987,-0.0757,0.003,0.1107,0.1745,0.1812,0.2034,0.2009,0.2133,0.1854,0.1817,0.1781,0.1806,0.2141,0.2142,0.2552,0.2556,0.2559]}],[{"header":{"parameterUnit":"m.s-1","parameterCategory":2,"la1":30.2991,"la2":30.254,"lo1":-89.0895,"lo2":-89.0444,"dy":0.0017,"dx":0.0017,"nx":28,"ny":28,"refTime":"2025-05-31T09:00:00:Z","depth":"2","parameterNumber":2,"parameterNumberName":"U-component_of_CURRENTS"},"data":[0,0,0,0,0,0,0,0,0,0,0,0,0,0,0,0,0,0,0,0,0,0,0,0,0,0,0,0,0,0,0,0,0,0,0,0,0,0,0,0,0,0,0,0,0,0,0,0,0,0,0,0,0,0,0,0,0,0,-0.2081,-0.2082,0,-0.2209,-0.221,-0.2212,-0.2212,-0.221,-0.2208,-0.2206,-0.2266,-0.2269,-0.2273,0,0,0,0,0,0,0,0,0,0,0,0,0,-0.1939,-0.1941,-0.2081,-0.2083,-0.2084,-0.2209,-0.2211,-0.2212,-0.2212,-0.221,-0.2208,-0.2206,-0.2265,-0.2269,-0.2273,0,0,0,0,0,0,0,0,0,0,0,0,0,-0.2028,-0.1942,-0.2081,-0.2098,-0.2101,-0.2208,-0.2211,-0.2213,-0.2212,-0.221,-0.2207,-0.2205,-0.2264,-0.2269,-0.2273,-0.2356,0,0,-0.2288,-0.229,0,0,0,0,0,0,0,0,-0.2023,-0.2033,-0.2094,-0.2097,-0.21,-0.2191,-0.2183,-0.2257,-0.2213,-0.2171,-0.2206,-0.2203,-0.2236,-0.2243,-0.2275,-0.2359,-0.2362,-0.2289,-0.2292,-0.2294,-0.2295,0,0,0,0,0,0,0,-0.2017,-0.2029,-0.2133,-0.2096,-0.21,-0.2135,-0.2144,-0.2198,-0.2216,-0.2174,-0.2174,-0.2188,-0.2237,-0.2271,-0.2277,-0.2363,-0.2289,-0.2293,-0.2296,-0.2298,-0.2466,-0.2468,0,0,0,0,0,0,-0.1997,-0.2023,-0.2129,-0.2136,-0.2053,-0.2139,-0.2149,-0.2165,-0.2217,-0.2223,-0.219,-0.2188,-0.2264,-0.2271,-0.2278,-0.2346,-0.2294,-0.2298,-0.2301,-0.2465,-0.2467,-0.2468,0,0,0,0,0,0,-0.1994,-0.2006,-0.2123,-0.2081,-0.2098,-0.2143,-0.2162,-0.2169,-0.2193,-0.223,-0.2234,-0.2205,-0.2262,-0.2272,-0.2333,-0.2349,-0.23,-0.2305,-0.2463,-0.2465,-0.2467,-0.2503,0,0,0,0,0,0,-0.1989,-0.2004,-0.2012,-0.208,-0.21,-0.2192,-0.2165,-0.2173,-0.2206,-0.2203,-0.2245,-0.2248,-0.2261,-0.2326,-0.2338,-0.2355,-0.2309,-0.2461,-0.2464,-0.2467,-0.25,-0.2506,-0.2512,0,0,0,0,0,-0.1984,-0.2008,-0.2012,-0.2025,-0.2109,-0.2194,-0.2209,-0.2232,-0.2209,-0.2239,-0.2263,-0.2246,-0.2351,-0.2333,-0.2346,-0.2364,-0.2459,-0.2463,-0.2466,-0.2497,-0.2505,-0.2512,0,0,0,0,0,0,-0.1955,-0.2013,-0.2018,-0.2058,-0.2121,-0.2193,-0.2219,-0.2237,-0.2284,-0.2269,-0.2288,-0.2296,-0.2353,-0.2363,-0.2341,-0.242,-0.2395,-0.2402,-0.2414,-0.2422,-0.2427,-0.2394,-0.2313,0,0,0,0,0,-0.1953,-0.1979,-0.2049,-0.2081,-0.2108,-0.2163,-0.2197,-0.222,-0.2269,-0.2286,-0.2323,-0.235,-0.2385,-0.2403,-0.2446,-0.2505,-0.2487,-0.2519,-0.2525,-0.2529,-0.2512,-0.2496,-0.2498,-0.248,-0.248,-0.248,0,0,-0.1949,-0.1984,-0.1999,-0.2076,-0.2117,-0.2179,-0.2177,-0.2234,-0.2278,-0.2287,-0.2357,-0.2385,-0.2408,-0.2469,-0.2492,-0.2473,-0.2535,-0.2534,-0.2538,-0.2517,-0.25,-0.2501,-0.2502,-0.2482,-0.2482,-0.2481,0,0,-0.1966,-0.1987,-0.2019,-0.2074,-0.2143,-0.2187,-0.2202,-0.2287,-0.231,-0.2396,-0.2394,-0.2432,-0.2513,-0.2524,-0.2536,-0.2604,-0.2573,-0.2613,-0.2613,-0.2599,-0.2599,-0.2599,-0.2613,-0.2614,-0.2608,-0.2608,-0.2608,0,-0.1956,-0.2002,-0.2046,-0.2099,-0.2132,-0.2188,-0.2236,-0.2293,-0.2389,-0.24,-0.2417,-0.2502,-0.2535,-0.2561,-0.2586,-0.2614,-0.2604,-0.2583,-0.2603,-0.2603,-0.2602,-0.2616,-0.2616,-0.261,-0.261,-0.261,-0.261,0,-0.2005,-0.2041,-0.2067,-0.214,-0.2194,-0.2244,-0.232,-0.2372,-0.2406,-0.245,-0.2501,-0.2557,-0.2585,-0.2614,-0.2627,-0.2636,-0.2632,-0.2617,-0.2577,-0.2605,-0.2619,-0.2619,-0.2614,-0.2613,-0.2612,-0.2612,0,0,-0.197,-0.2075,-0.208,-0.2107,-0.2208,-0.2254,-0.2324,-0.239,-0.2414,-0.25,-0.2524,-0.2596,-0.2599,-0.2611,-0.2628,-0.2629,-0.2646,-0.2619,-0.2617,-0.2619,-0.2627,-0.2585,-0.2581,-0.2622,-0.2622,-0.2621,-0.2651,0,-0.1984,-0.2061,-0.2118,-0.2187,-0.2226,-0.2288,-0.2349,-0.2412,-0.2469,-0.2523,-0.2546,-0.2594,-0.2604,-0.262,-0.2618,-0.2646,-0.264,-0.264,-0.261,-0.261,-0.2557,-0.2577,-0.2349,-0.2351,-0.2651,-0.265,-0.265,0,-0.2003,-0.2046,-0.2107,-0.2182,-0.2203,-0.2255,-0.2316,-0.2383,-0.2458,-0.2497,-0.2525,-0.2563,-0.2592,-0.2595,-0.2613,-0.2608,-0.2609,-0.2625,-0.2626,-0.2562,-0.2565,-0.2366,-0.2339,-0.2649,-0.2649,-0.2649,-0.2649,0,-0.1933,-0.2031,-0.2062,-0.2095,-0.2203,-0.2219,-0.227,-0.2354,-0.2402,-0.247,-0.2513,-0.2539,-0.2574,-0.2567,-0.2616,-0.2606,-0.2636,-0.2623,-0.2583,-0.2582,-0.2368,-0.2349,-0.2603,-0.2603,-0.2603,-0.2603,-0.2603,0,-0.1912,-0.1936,-0.2027,-0.2044,-0.2076,-0.2163,-0.2206,-0.2265,-0.235,-0.2405,-0.2477,-0.2524,-0.2565,-0.2602,-0.2611,-0.2605,-0.2623,-0.2577,-0.2575,-0.2382,-0.2364,-0.2596,-0.2594,-0.2604,-0.2604,-0.2604,-0.2603,0,-0.1832,-0.1899,-0.1934,-0.202,-0.2047,-0.2061,-0.2166,-0.2203,-0.2296,-0.237,-0.2394,-0.2511,-0.2561,-0.2607,-0.2631,-0.2605,-0.2605,-0.2591,-0.2384,-0.2355,-0.2564,-0.2565,-0.2538,-0.2536,-0.2535,-0.2534,-0.2533,0,-0.1799,-0.181,-0.1888,-0.1907,-0.194,-0.1989,-0.2032,-0.2147,-0.2202,-0.2361,-0.2389,-0.2484,-0.2524,-0.2566,-0.2538,-0.2527,-0.2589,-0.2311,-0.224,-0.2551,-0.2552,-0.2555,-0.2557,-0.1991,-0.1986,-0.1982,-0.1978,0,-0.1717,-0.1742,-0.177,-0.1807,-0.1844,-0.1898,-0.1968,-0.2007,-0.2153,-0.2227,-0.2322,-0.2367,-0.2431,-0.2327,-0.2332,-0.2287,-0.2294,-0.2224,-0.2573,-0.2052,-0.204,-0.2041,-0.2059,-0.194,-0.1944,-0.1947,-0.1949,-0.195,-0.1639,-0.1635,-0.1671,-0.1698,-0.1745,-0.1781,-0.1785,-0.1884,-0.1949,-0.204,-0.2168,-0.218,-0.2186,-0.2089,-0.2007,-0.1945,-0.2106,-0.1985,-0.1996,-0.2012,-0.1952,-0.1938,-0.1811,-0.1814,-0.1816,-0.1819,-0.1821,0,-0.1541,-0.1553,-0.1567,-0.1595,-0.1595,-0.1662,-0.1727,-0.1719,-0.1753,-0.1851,-0.191,-0.1763,-0.1705,-0.1727,-0.1575,-0.1555,-0.1508,-0.1475,-0.1398,-0.1437,-0.1471,-0.1382,-0.109,-0.1088,-0.1087,-0.1085,0,0,-0.1492,-0.1468,-0.1479,-0.1441,-0.1457,-0.1425,-0.1435,-0.1443,-0.1481,-0.1473,-0.1484,-0.1643,-0.1681,-0.1399,-0.1321,-0.1183,-0.1293,-0.1115,-0.1697,-0.1644,-0.1676,-0.176,-0.1666,0,0,0,0,0]},{"header":{"parameterUnit":"m.s-1","parameterCategory":2,"la1":30.2991,"la2":30.254,"lo1":-89.0895,"lo2":-89.0444,"dy":0.0017,"dx":0.0017,"nx":28,"ny":28,"refTime":"2025-05-31T09:00:00:Z","depth":"2","parameterNumber":3,"parameterNumberName":"V-component_of_CURRENTS"},"data":[0,0,0,0,0,0,0,0,0,0,0,0,0,0,0,0,0,0,0,0,0,0,0,0,0,0,0,0,0,0,0,0,0,0,0,0,0,0,0,0,0,0,0,0,0,0,0,0,0,0,0,0,0,0,0,0,0,0,-0.0049,-0.0048,0,0.0029,0.003,0.0031,0.0086,0.0087,0.0087,0.0087,0.0211,0.0214,0.0217,0,0,0,0,0,0,0,0,0,0,0,0,0,-0.0107,-0.0106,-0.0049,-0.0048,-0.0047,0.0029,0.003,0.0031,0.0086,0.0087,0.0087,0.0087,0.021,0.0214,0.0218,0,0,0,0,0,0,0,0,0,0,0,0,0,-0.006,-0.0106,-0.0049,-0.0012,-0.0008,0.0029,0.003,0.0032,0.0086,0.0087,0.0087,0.0088,0.0209,0.0214,0.0218,0.0236,0,0,0.0232,0.0234,0,0,0,0,0,0,0,0,-0.0063,-0.0058,-0.0018,-0.0014,-0.001,0.0047,0.0055,0.0102,0.0086,0.0052,0.0087,0.0088,0.016,0.0168,0.0183,0.0242,0.0247,0.0232,0.0235,0.0237,0.0238,0,0,0,0,0,0,0,-0.0066,-0.006,-0.0017,-0.0017,-0.0012,0.0016,0.0023,0.0065,0.0104,0.0055,0.0059,0.0065,0.0163,0.0178,0.0186,0.0249,0.0232,0.0236,0.0239,0.0241,0.0358,0.0358,0,0,0,0,0,0,-0.0081,-0.0064,-0.0019,-0.0015,-0.0037,0.0017,0.0025,0.003,0.0102,0.0113,0.0065,0.0068,0.017,0.0181,0.0191,0.0218,0.0237,0.0241,0.0244,0.0358,0.0358,0.0359,0,0,0,0,0,0,-0.0082,-0.0078,-0.0023,-0.0038,-0.0029,0.0017,0.0022,0.0031,0.0043,0.0109,0.0122,0.0068,0.0171,0.0185,0.0225,0.0223,0.0243,0.0247,0.0357,0.0358,0.0358,0.0271,0,0,0,0,0,0,-0.0084,-0.0079,-0.0081,-0.0039,-0.0029,-0.0017,0.0022,0.0032,0.0046,0.0051,0.0116,0.0128,0.0173,0.0218,0.0229,0.023,0.0251,0.0357,0.0357,0.0358,0.0273,0.0269,0.0264,0,0,0,0,0,-0.0087,-0.0101,-0.0081,-0.0076,-0.0033,-0.0018,-0.0011,0.0025,0.0046,0.004,0.0093,0.0126,0.0231,0.0221,0.0235,0.0236,0.0356,0.0357,0.0358,0.0275,0.0269,0.0265,0,0,0,0,0,0,-0.0129,-0.0095,-0.0073,-0.0076,-0.0054,-0.001,-0.001,0.0016,0.0053,0.006,0.0126,0.0142,0.0177,0.0221,0.0208,0.0276,0.0302,0.0305,0.0234,0.0229,0.0225,0.0207,0.0254,0,0,0,0,0,-0.0139,-0.0138,-0.0102,-0.0104,-0.0097,-0.0054,-0.0042,-0.002,0.0018,0.0035,0.0082,0.0141,0.0193,0.0219,0.0267,0.0299,0.0337,0.0313,0.0308,0.0304,0.0301,0.0349,0.0347,0.0362,0.0362,0.0362,0,0,-0.0154,-0.0136,-0.0134,-0.0112,-0.009,-0.0092,-0.0046,-0.004,-0.0031,0.0043,0.0068,0.0121,0.0198,0.0234,0.0255,0.027,0.0322,0.0305,0.0301,0.03,0.0349,0.0348,0.0346,0.0362,0.0362,0.0362,0,0,-0.0197,-0.0171,-0.019,-0.0177,-0.0155,-0.0127,-0.013,-0.0093,-0.0066,-0.0038,0.0026,0.0075,0.0145,0.0202,0.0241,0.0242,0.0293,0.0261,0.0226,0.0272,0.027,0.027,0.0313,0.0317,0.0262,0.0262,0.0261,0,-0.0218,-0.0231,-0.0194,-0.0211,-0.0202,-0.0149,-0.0167,-0.0134,-0.0086,-0.006,-0.0043,0.0075,0.0131,0.0198,0.02,0.023,0.0263,0.0234,0.0263,0.0263,0.0264,0.0309,0.0314,0.0257,0.0258,0.0258,0.0259,0,-0.0274,-0.0283,-0.0295,-0.0291,-0.028,-0.0288,-0.0239,-0.022,-0.0179,-0.0136,-0.0072,0.0008,0.0081,0.0109,0.0155,0.0198,0.0221,0.0245,0.0267,0.0257,0.0306,0.0313,0.0252,0.0253,0.0254,0.0255,0,0,-0.0318,-0.0333,-0.0335,-0.0347,-0.0322,-0.032,-0.0301,-0.0263,-0.0246,-0.0184,-0.0149,-0.0053,-0.0003,0.0045,0.0115,0.0159,0.0191,0.0196,0.0201,0.0223,0.0289,0.0317,0.0329,0.0214,0.0215,0.0215,0.0319,0,-0.0371,-0.0424,-0.0407,-0.0442,-0.0462,-0.0408,-0.0395,-0.0349,-0.0294,-0.0249,-0.0145,-0.0089,-0.0026,0.0006,0.0061,0.0164,0.0207,0.0161,0.0311,0.0316,0.0329,0.0337,0.0304,0.0394,0.0326,0.0327,0.0328,0,-0.0427,-0.0454,-0.0506,-0.0515,-0.0517,-0.0524,-0.0485,-0.0466,-0.0379,-0.0337,-0.0256,-0.0174,-0.0076,-0.0037,0.0126,0.0092,0.0177,0.0252,0.0258,0.032,0.0358,0.0398,0.0411,0.0341,0.034,0.0339,0.0338,0,-0.0477,-0.0517,-0.056,-0.0564,-0.0568,-0.0569,-0.0557,-0.0493,-0.0476,-0.0387,-0.0367,-0.0232,-0.0169,-0.0042,0.0122,0.0121,0.0289,0.0311,0.0419,0.0422,0.0443,0.0447,0.0406,0.0406,0.0406,0.0405,0.0405,0,-0.0533,-0.0567,-0.059,-0.0615,-0.0656,-0.0628,-0.0644,-0.0607,-0.0558,-0.0549,-0.0417,-0.0377,-0.0172,-0.0044,0.01,0.0286,0.0277,0.0415,0.0452,0.0413,0.0413,0.0406,0.0405,0.0409,0.0408,0.0408,0.0407,0,-0.0579,-0.0597,-0.0652,-0.0676,-0.0686,-0.071,-0.072,-0.0728,-0.0671,-0.0656,-0.0634,-0.0478,-0.0306,-0.0098,0.0121,0.0255,0.043,0.0492,0.0434,0.0462,0.0537,0.053,0.0628,0.0629,0.0631,0.0632,0.0634,0,-0.0608,-0.0643,-0.0701,-0.0742,-0.0758,-0.0792,-0.0819,-0.0787,-0.0793,-0.0721,-0.0718,-0.0551,-0.0431,-0.0083,0.019,0.0458,0.0461,0.0579,0.0577,0.0535,0.0561,0.0551,0.0543,0.0573,0.0574,0.0574,0.0575,0,-0.0656,-0.0676,-0.072,-0.0814,-0.0863,-0.0916,-0.0947,-0.0971,-0.0934,-0.0913,-0.0849,-0.0747,-0.0401,-0.0096,0.0267,0.0423,0.0539,0.0597,0.0577,0.0517,0.0491,0.0514,0.0506,0.0578,0.0578,0.0578,0.0578,0.0577,-0.0681,-0.0728,-0.0797,-0.0882,-0.0949,-0.1026,-0.107,-0.1097,-0.1115,-0.1072,-0.0952,-0.0772,-0.0448,0.0068,0.0332,0.0597,0.0594,0.0667,0.0663,0.0659,0.0629,0.0607,0.0711,0.0711,0.0711,0.0711,0.0712,0,-0.0711,-0.0775,-0.0863,-0.0966,-0.1056,-0.1077,-0.1147,-0.1177,-0.1211,-0.1122,-0.103,-0.0679,-0.0315,0.0026,0.0445,0.0687,0.0674,0.0724,0.0661,0.0656,0.0651,0.0619,0.0699,0.07,0.0701,0.0701,0,0,-0.0731,-0.082,-0.0876,-0.1035,-0.1112,-0.1219,-0.1263,-0.1291,-0.124,-0.1168,-0.101,-0.0754,-0.0323,-0.0028,0.0283,0.0499,0.0509,0.0519,0.0504,0.0386,0.0379,0.0597,0.0539,0,0,0,0,0]}],[{"header":{"parameterUnit":"m.s-1","parameterCategory":2,"la1":30.2991,"la2":30.254,"lo1":-89.0895,"lo2":-89.0444,"dy":0.0017,"dx":0.0017,"nx":28,"ny":28,"refTime":"2025-05-31T09:00:00:Z","depth":"4","parameterNumber":2,"parameterNumberName":"U-component_of_CURRENTS"},"data":[0,0,0,0,0,0,0,0,0,0,0,0,0,0,0,0,0,0,0,0,0,0,0,0,0,0,0,0,0,0,0,0,0,0,0,0,0,0,0,0,0,0,0,0,0,0,0,0,0,0,0,0,0,0,0,0,0,0,-0.1505,-0.1506,0,-0.1502,-0.1502,-0.1501,-0.1487,-0.1487,-0.1488,-0.1488,-0.1488,-0.1488,-0.1487,0,0,0,0,0,0,0,0,0,0,0,0,0,-0.1397,-0.1398,-0.1505,-0.1506,-0.1507,-0.1503,-0.1502,-0.1501,-0.1487,-0.1487,-0.1488,-0.1489,-0.1489,-0.1488,-0.1487,0,0,0,0,0,0,0,0,0,0,0,0,0,-0.1415,-0.1399,-0.1505,-0.1507,-0.1508,-0.1503,-0.1501,-0.15,-0.1487,-0.1487,-0.1488,-0.1489,-0.1489,-0.1488,-0.1487,-0.1465,0,0,-0.1485,-0.1484,0,0,0,0,0,0,0,0,-0.1414,-0.1417,-0.1506,-0.1507,-0.1508,-0.1505,-0.1464,-0.1492,-0.1486,-0.1484,-0.1489,-0.149,-0.15,-0.1498,-0.1482,-0.1465,-0.1465,-0.1485,-0.1484,-0.1484,-0.1484,0,0,0,0,0,0,0,-0.1413,-0.1417,-0.1494,-0.1507,-0.1508,-0.1474,-0.1477,-0.1468,-0.1479,-0.1484,-0.1486,-0.1501,-0.1499,-0.1482,-0.1482,-0.1465,-0.1485,-0.1484,-0.1483,-0.1483,-0.1544,-0.1546,0,0,0,0,0,0,-0.1438,-0.1417,-0.1494,-0.1495,-0.1473,-0.1476,-0.1479,-0.1497,-0.148,-0.1481,-0.15,-0.1501,-0.1483,-0.1483,-0.1482,-0.1553,-0.1484,-0.1483,-0.1483,-0.1542,-0.1544,-0.1547,0,0,0,0,0,0,-0.1435,-0.1445,-0.1495,-0.1463,-0.1468,-0.1479,-0.1497,-0.1496,-0.1509,-0.1494,-0.1493,-0.1519,-0.1484,-0.1483,-0.1497,-0.155,-0.1483,-0.1482,-0.1539,-0.1543,-0.1546,-0.1633,0,0,0,0,0,0,-0.1432,-0.1444,-0.1466,-0.1465,-0.1472,-0.1507,-0.1497,-0.1496,-0.152,-0.1521,-0.1509,-0.1508,-0.1484,-0.1499,-0.1496,-0.1547,-0.1481,-0.1537,-0.1541,-0.1545,-0.1627,-0.1639,-0.1648,0,0,0,0,0,-0.1428,-0.1455,-0.1466,-0.1477,-0.1501,-0.1509,-0.1507,-0.151,-0.1521,-0.1524,-0.1523,-0.151,-0.1523,-0.1499,-0.1496,-0.1548,-0.1535,-0.154,-0.1544,-0.1623,-0.1637,-0.1648,0,0,0,0,0,0,-0.1416,-0.1458,-0.1469,-0.1508,-0.1518,-0.1511,-0.1526,-0.1528,-0.1527,-0.154,-0.1519,-0.1517,-0.1552,-0.1537,-0.1511,-0.158,-0.1534,-0.1538,-0.1595,-0.1608,-0.1618,-0.1624,-0.1481,0,0,0,0,0,-0.1428,-0.1461,-0.1484,-0.1514,-0.153,-0.1533,-0.1541,-0.1544,-0.1547,-0.1548,-0.1542,-0.1549,-0.1564,-0.1575,-0.1571,-0.16,-0.1589,-0.1638,-0.1649,-0.1658,-0.1663,-0.1684,-0.1697,-0.1562,-0.1562,-0.1562,0,0,-0.1433,-0.1461,-0.148,-0.1515,-0.1526,-0.1545,-0.1538,-0.1563,-0.1584,-0.155,-0.1576,-0.1578,-0.1577,-0.161,-0.1628,-0.1609,-0.1694,-0.1664,-0.1671,-0.1672,-0.169,-0.1703,-0.1715,-0.1565,-0.1565,-0.1564,0,0,-0.1451,-0.1487,-0.1519,-0.1535,-0.157,-0.157,-0.1589,-0.16,-0.1615,-0.1634,-0.1632,-0.1668,-0.1668,-0.1689,-0.1699,-0.1768,-0.1742,-0.1777,-0.1841,-0.1862,-0.1873,-0.1883,-0.1896,-0.1905,-0.179,-0.179,-0.179,0,-0.1456,-0.1498,-0.1524,-0.1555,-0.1577,-0.1591,-0.1617,-0.1632,-0.1643,-0.1669,-0.1658,-0.1705,-0.171,-0.1773,-0.1804,-0.1794,-0.179,-0.1792,-0.1875,-0.1884,-0.1892,-0.1903,-0.1913,-0.1795,-0.1794,-0.1794,-0.1794,0,-0.1485,-0.1527,-0.1549,-0.1595,-0.1616,-0.1641,-0.1674,-0.1702,-0.1725,-0.1739,-0.1802,-0.1806,-0.1837,-0.1862,-0.1853,-0.1932,-0.1906,-0.1879,-0.184,-0.1911,-0.1918,-0.1927,-0.1802,-0.18,-0.1799,-0.1798,0,0,-0.1465,-0.1553,-0.1561,-0.159,-0.1642,-0.1655,-0.1716,-0.1763,-0.1811,-0.1837,-0.1893,-0.1946,-0.1956,-0.1969,-0.1978,-0.2012,-0.2079,-0.1979,-0.1978,-0.1987,-0.212,-0.1973,-0.1968,-0.206,-0.2062,-0.2064,-0.2105,0,-0.1475,-0.1537,-0.1582,-0.1632,-0.1661,-0.171,-0.1758,-0.1811,-0.1854,-0.1906,-0.1957,-0.2,-0.1996,-0.2021,-0.2059,-0.2067,-0.2103,-0.207,-0.2054,-0.2054,-0.191,-0.1973,-0.2069,-0.2111,-0.2113,-0.2114,-0.2115,0,-0.1476,-0.1519,-0.1577,-0.1657,-0.1678,-0.1712,-0.1796,-0.1841,-0.1933,-0.1972,-0.2038,-0.2061,-0.2138,-0.2108,-0.2171,-0.2146,-0.2146,-0.2149,-0.2149,-0.1984,-0.1922,-0.2023,-0.213,-0.2129,-0.2127,-0.2126,-0.2126,0,-0.1419,-0.151,-0.1556,-0.1581,-0.1673,-0.172,-0.1767,-0.1861,-0.191,-0.2012,-0.2054,-0.2133,-0.2169,-0.2193,-0.221,-0.2193,-0.2255,-0.2225,-0.2098,-0.2088,-0.2168,-0.2157,-0.2268,-0.2268,-0.2268,-0.2267,-0.2267,0,-0.1389,-0.1427,-0.1537,-0.1556,-0.1615,-0.1693,-0.1764,-0.1831,-0.1929,-0.1984,-0.2076,-0.212,-0.219,-0.2231,-0.2234,-0.2187,-0.2273,-0.2117,-0.209,-0.2206,-0.2199,-0.2174,-0.2163,-0.2269,-0.2269,-0.2268,-0.2268,0,-0.1311,-0.1388,-0.1442,-0.1551,-0.1589,-0.1624,-0.1741,-0.1789,-0.1897,-0.1971,-0.2004,-0.212,-0.2164,-0.2218,-0.2259,-0.2196,-0.2181,-0.2144,-0.2275,-0.2254,-0.1998,-0.1991,-0.2002,-0.1997,-0.1993,-0.199,-0.1987,0,-0.1274,-0.1297,-0.1414,-0.1447,-0.1498,-0.1573,-0.1625,-0.1748,-0.1796,-0.1951,-0.1969,-0.2065,-0.2124,-0.2068,-0.2135,-0.2128,-0.2102,-0.2082,-0.2033,-0.1998,-0.1972,-0.1971,-0.197,-0.198,-0.1979,-0.1978,-0.1977,0,-0.1194,-0.1248,-0.1292,-0.1358,-0.1417,-0.1478,-0.1559,-0.158,-0.172,-0.1843,-0.1877,-0.1903,-0.1949,-0.1972,-0.1978,-0.1973,-0.2087,-0.2039,-0.2047,-0.2001,-0.1972,-0.195,-0.1953,-0.1963,-0.1965,-0.1966,-0.1967,0,-0.1132,-0.1142,-0.1208,-0.1253,-0.1325,-0.1351,-0.1413,-0.1468,-0.153,-0.1701,-0.1709,-0.1818,-0.1925,-0.1892,-0.1904,-0.1881,-0.1848,-0.1782,-0.1803,-0.1819,-0.1738,-0.1674,-0.1557,0,0,0,0,0,-0.1064,-0.1067,-0.1099,-0.1144,-0.1208,-0.1249,-0.1358,-0.1426,-0.1568,-0.1541,-0.1617,-0.1652,-0.1669,-0.173,-0.1666,-0.1822,-0.1855,-0.174,-0.179,-0.1885,-0.1901,-0.1822,0,0,0,0,0,0,-0.102,-0.1046,-0.1059,-0.104,-0.105,-0.1107,-0.1169,-0.1268,-0.1263,-0.1412,-0.1428,-0.1543,-0.1582,-0.1676,-0.1629,-0.1646,-0.164,-0.1812,-0.1807,-0.1876,-0.189,-0.1903,-0.1828,0,0,0,0,0]},{"header":{"parameterUnit":"m.s-1","parameterCategory":2,"la1":30.2991,"la2":30.254,"lo1":-89.0895,"lo2":-89.0444,"dy":0.0017,"dx":0.0017,"nx":28,"ny":28,"refTime":"2025-05-31T09:00:00:Z","depth":"4","parameterNumber":3,"parameterNumberName":"V-component_of_CURRENTS"},"data":[0,0,0,0,0,0,0,0,0,0,0,0,0,0,0,0,0,0,0,0,0,0,0,0,0,0,0,0,0,0,0,0,0,0,0,0,0,0,0,0,0,0,0,0,0,0,0,0,0,0,0,0,0,0,0,0,0,0,0.0007,0.0008,0,0.0081,0.0082,0.0083,0.0131,0.0131,0.0131,0.0131,0.0231,0.0234,0.0236,0,0,0,0,0,0,0,0,0,0,0,0,0,-0.0036,-0.0036,0.0007,0.0008,0.0008,0.0081,0.0082,0.0083,0.0131,0.0131,0.0131,0.0131,0.023,0.0233,0.0236,0,0,0,0,0,0,0,0,0,0,0,0,0,0.0006,-0.0036,0.0007,0.004,0.0043,0.008,0.0082,0.0083,0.0131,0.0131,0.0131,0.0131,0.0229,0.0233,0.0237,0.0256,0,0,0.0248,0.025,0,0,0,0,0,0,0,0,0.0004,0.0008,0.0034,0.0037,0.0041,0.0095,0.0103,0.0142,0.0131,0.0099,0.0131,0.0132,0.0187,0.0194,0.021,0.0261,0.0265,0.0249,0.0251,0.0253,0.0254,0,0,0,0,0,0,0,0.0001,0.0005,0.0038,0.0035,0.0039,0.007,0.0076,0.0111,0.0143,0.0102,0.0105,0.0111,0.0189,0.0206,0.0212,0.0266,0.0249,0.0252,0.0254,0.0256,0.0317,0.0316,0,0,0,0,0,0,-0.0015,0.0002,0.0036,0.004,0.0021,0.007,0.0077,0.0079,0.0142,0.0151,0.011,0.0113,0.0199,0.0208,0.0216,0.0228,0.0253,0.0256,0.0258,0.0318,0.0317,0.0316,0,0,0,0,0,0,-0.0017,-0.0013,0.0033,0.0022,0.0029,0.007,0.0073,0.0081,0.0096,0.0148,0.0158,0.0117,0.02,0.0211,0.0241,0.0232,0.0258,0.0261,0.0318,0.0317,0.0316,0.0261,0,0,0,0,0,0,-0.0018,-0.0014,-0.0017,0.002,0.0029,0.0044,0.0073,0.0082,0.0098,0.0102,0.0157,0.0167,0.0201,0.0235,0.0245,0.0238,0.0264,0.0319,0.0318,0.0317,0.0263,0.0258,0.0253,0,0,0,0,0,-0.002,-0.0031,-0.0017,-0.0013,0.0024,0.0044,0.0051,0.0083,0.0098,0.0099,0.0137,0.0165,0.0234,0.0238,0.0249,0.0244,0.032,0.0318,0.0317,0.0265,0.0259,0.0253,0,0,0,0,0,0,-0.0051,-0.0026,-0.0011,-0.0013,0.001,0.0051,0.0053,0.0078,0.0109,0.0112,0.0164,0.0176,0.0198,0.0226,0.0229,0.0256,0.0279,0.0279,0.0235,0.023,0.0225,0.0217,0.0267,0,0,0,0,0,-0.006,-0.0061,-0.003,-0.0031,-0.0025,0.0015,0.0027,0.0048,0.008,0.0094,0.0134,0.0171,0.0201,0.0219,0.0251,0.027,0.0306,0.027,0.0265,0.0261,0.0261,0.0306,0.0305,0.0311,0.0311,0.0311,0,0,-0.0071,-0.0058,-0.0058,-0.0038,-0.0018,-0.0017,0.0023,0.0033,0.0038,0.01,0.0119,0.0157,0.0202,0.0222,0.0233,0.0245,0.0276,0.0259,0.0255,0.0258,0.0305,0.0304,0.0304,0.031,0.031,0.0311,0,0,-0.0103,-0.0086,-0.0101,-0.0088,-0.0067,-0.0043,-0.0044,-0.0007,0.0012,0.0035,0.0079,0.0113,0.0158,0.0192,0.0214,0.02,0.0249,0.0204,0.0176,0.0219,0.0219,0.022,0.026,0.0265,0.0201,0.0201,0.0201,0,-0.0117,-0.013,-0.0102,-0.0113,-0.0107,-0.0061,-0.0075,-0.0049,-0.0004,0.0013,0.0029,0.0107,0.0144,0.0178,0.0171,0.019,0.0221,0.0196,0.0213,0.0214,0.0216,0.0257,0.0263,0.0198,0.0198,0.0199,0.0199,0,-0.0159,-0.0169,-0.0179,-0.0177,-0.0167,-0.0171,-0.0136,-0.012,-0.0089,-0.0054,-0.0013,0.0046,0.0093,0.0107,0.0136,0.0164,0.0185,0.0202,0.0229,0.0212,0.0257,0.0264,0.0194,0.0195,0.0196,0.0196,0,0,-0.019,-0.0206,-0.0208,-0.0221,-0.0201,-0.0199,-0.0192,-0.0167,-0.0159,-0.0105,-0.0082,-0.0022,0.0022,0.0049,0.0097,0.0136,0.0173,0.0168,0.0172,0.0209,0.0269,0.0251,0.0258,0.0195,0.0196,0.0197,0.0294,0,-0.0229,-0.0274,-0.0264,-0.0295,-0.0313,-0.0274,-0.0272,-0.024,-0.0201,-0.0167,-0.0091,-0.0053,-0.0004,0.0019,0.0067,0.0149,0.019,0.0145,0.0279,0.0283,0.027,0.0265,0.02,0.0299,0.0301,0.0302,0.0303,0,-0.0269,-0.0294,-0.034,-0.0358,-0.0361,-0.0371,-0.0353,-0.0343,-0.0281,-0.0249,-0.0187,-0.0122,-0.0047,-0.001,0.0128,0.0098,0.0175,0.0239,0.0245,0.0254,0.0278,0.0322,0.0317,0.0316,0.0315,0.0314,0.0313,0,-0.0303,-0.0343,-0.0384,-0.0389,-0.0401,-0.0412,-0.041,-0.0368,-0.0362,-0.0296,-0.028,-0.0172,-0.0121,-0.0007,0.013,0.013,0.0279,0.0298,0.0359,0.0359,0.0372,0.0371,0.039,0.039,0.039,0.0389,0.0389,0,-0.0341,-0.0373,-0.0409,-0.043,-0.0474,-0.046,-0.0485,-0.0462,-0.0431,-0.0428,-0.0325,-0.0291,-0.0119,-0.001,0.0115,0.0257,0.0272,0.0355,0.0382,0.0345,0.0339,0.0378,0.0375,0.0393,0.0392,0.0392,0.0391,0,-0.0365,-0.039,-0.0442,-0.0479,-0.0495,-0.0522,-0.0548,-0.056,-0.0524,-0.0516,-0.0498,-0.0373,-0.0231,-0.0059,0.0133,0.0227,0.037,0.0416,0.0361,0.0384,0.0427,0.042,0.0494,0.0494,0.0494,0.0495,0.0495,0,-0.0381,-0.0412,-0.0481,-0.0522,-0.0545,-0.0588,-0.0618,-0.0607,-0.0614,-0.0566,-0.056,-0.0429,-0.033,-0.0067,0.0112,0.035,0.0381,0.0453,0.0444,0.0418,0.0437,0.043,0.0424,0.0495,0.0495,0.0495,0.0495,0,-0.0406,-0.0434,-0.0476,-0.0566,-0.062,-0.0675,-0.0713,-0.0728,-0.071,-0.0684,-0.0606,-0.0462,-0.0301,-0.0081,0.0103,0.0273,0.0406,0.0455,0.0456,0.0449,0.042,0.0437,0.043,0.0495,0.0495,0.0495,0.0495,0,-0.0418,-0.0458,-0.0524,-0.0598,-0.0676,-0.0741,-0.0758,-0.0762,-0.076,-0.07,-0.0675,-0.0493,-0.0377,-0.0121,0.0048,0.0214,0.0257,0.0306,0.0316,0.0318,0.0236,0.0172,0.0194,0,0,0,0,0,-0.0424,-0.0476,-0.0554,-0.0638,-0.0718,-0.0763,-0.0811,-0.0816,-0.0802,-0.0758,-0.0715,-0.0563,-0.0304,-0.0178,-0.0015,0.005,0.0282,0.0244,0.0342,0.0498,0.0497,0.043,0,0,0,0,0,0,-0.0432,-0.0503,-0.0551,-0.0656,-0.0721,-0.0803,-0.084,-0.0835,-0.0794,-0.0757,-0.061,-0.0533,-0.0268,-0.0397,-0.0014,0.0037,0.0118,0.0374,0.0377,0.0498,0.0498,0.0497,0.0428,0,0,0,0,0]}]]